This is the latest recevied weather packets stored in our database for station/object DD6UBW. If no packets are shown the sender has not sent any weather packets the latest 10 day(s).
| Time | Temp. | Humidity | Pressure | Rain* | Wind** | Luminosity | Snow |
|---|---|---|---|---|---|---|---|
| 1778099401 | 10.56° C | 85% | 1007.6 hPa | 23.11 mm | - | - | - |
| 1778097601 | 10.56° C | 86% | 1007.6 hPa | 23.11 mm | - | - | - |
| 1778095801 | 10.56° C | 86% | 1007.6 hPa | 23.11 mm | - | - | - |
| 1778094001 | 10.56° C | 86% | 1006.6 hPa | 23.11 mm | - | - | - |
| 1778092203 | 11.11° C | 86% | 1006.6 hPa | 23.11 mm | - | - | - |
| 1778090401 | 11.11° C | 86% | 1006.6 hPa | 23.11 mm | - | - | - |
| 1778088601 | 11.11° C | 86% | 1006.6 hPa | 23.11 mm | - | - | - |
| 1778086802 | 11.67° C | 85% | 1006.6 hPa | 23.11 mm | - | - | - |
| 1778085001 | 12.22° C | 84% | 1006.6 hPa | 23.11 mm | - | - | - |
| 1778083202 | 12.22° C | 85% | 1006.6 hPa | 23.11 mm | - | - | - |
| 1778081401 | 12.78° C | 84% | 1006.6 hPa | 23.11 mm | - | - | - |
| 1778079601 | 12.22° C | 86% | 1006.6 hPa | 23.11 mm | - | - | - |
| 1778077802 | 11.67° C | 87% | 1006.6 hPa | 23.11 mm | - | - | - |
| 1778076001 | 11.67° C | 87% | 1006.6 hPa | 23.11 mm | - | - | - |
| 1778074201 | 11.67° C | 87% | 1006.6 hPa | 23.11 mm | - | - | - |
| 1778072402 | 11.67° C | 87% | 1005.6 hPa | 23.11 mm | - | - | - |
| 1778070602 | 11.67° C | 87% | 1006.6 hPa | 22.61 mm | - | - | - |
| 1778068801 | 11.67° C | 87% | 1005.6 hPa | 22.61 mm | - | - | - |
| 1778067001 | 12.22° C | 87% | 1005.6 hPa | 22.61 mm | - | - | - |
| 1778065201 | 11.67° C | 88% | 1005.6 hPa | 22.61 mm | - | - | - |
| 1778063400 | 11.67° C | 88% | 1004.6 hPa | 22.35 mm | - | - | - |
| 1778061602 | 11.67° C | 88% | 1004.6 hPa | 22.1 mm | - | - | - |
| 1778058001 | 11.67° C | 88% | 1004.6 hPa | 20.32 mm | - | - | - |
| 1778056200 | 11.11° C | 88% | 1003.6 hPa | 20.07 mm | - | - | - |
| 1778054401 | 11.67° C | 88% | 1003.6 hPa | 19.05 mm | - | - | - |
* Rain since midnight (hover to see other rain measurements)
** Current wind speed in m/s (hover to see current wind gust speed)